Bellingham, WA

1:59 AM PDT on June 25, 2017 (GMT -0700)
Bellingham International

Weather History for KBLI - June, 2014

Change the Weather History Date:

Wednesday, June 18, 2014

  Actual Average Record
Temperature  
Mean Temperature 59 °F 59 °F  
Max Temperature 64 °F 67 °F 87 °F (1958)
Min Temperature 54 °F 51 °F 41 °F (1949)
Degree Days  
Heating Degree Days 6 6  
Month to date heating degree days 98 130  
Since 1 June heating degree days 98 130  
Cooling Degree Days 0 0  
Month to date cooling degree days 0 0  
Year to date cooling degree days 1 0  
Since 1 June cooling degree days 0 0  
Growing Degree Days 8 (Base 50)    
Moisture  
Dew Point 48 °F    
Average Humidity 67    
Maximum Humidity 77    
Minimum Humidity 56    
Precipitation  
Precipitation 0.00 in 0.06 in 0.81 in (1981)
Month to date precipitation 0.79 1.21  
Year to date precipitation 17.67 17.29  
Sea Level Pressure  
Sea Level Pressure 30.09 in    
Wind  
Wind Speed 8 mph (SSE)    
Max Wind Speed 18 mph    
Max Gust Speed 26 mph    
Visibility 10 miles    
Events      
T = Trace of Precipitation, MM = Missing Value Source: NWS Daily Summary

Daily Weather History Graph

Daily Weather History Graph

Search for Another Location

Airport or City:

Trip Planner

Search our weather history database for the weather conditions in past years. The results will help you decide how hot, cold, wet, or windy it might be!

Date:

Astronomy

Jun. 18, 2014 Rise Set
Actual Time 5:06 AM PDT 9:16 PM PDT
Civil Twilight 4:23 AM PDT 9:58 PM PDT
Nautical Twilight 3:23 AM PDT 10:59 PM PDT
Astronomical Twilight 1:43 AM PDT 12:39 AM PDT
Moon 12:20 AM PDT (6/18) 12:06 PM PDT (6/18)
Length of Visible Light 17h 35m
Length of Day
16h 09m
Waning Gibbous, 61% of the Moon is Illuminated
Jun 18
Waning Gibbous
Jun 19
Last Quarter
Jun 27
New
Jul 5
First Quarter
Jul 12
Full

Hourly Weather History & Observations

Time (PDT) Temp. Dew Point Humidity Pressure Visibility Wind Dir Wind Speed Gust Speed Precip Events Conditions
12:53 AM 55.9 °F 48.0 °F 75% 30.10 in 10.0 mi SSE 12.7 mph - N/A   Overcast
1:53 AM 55.9 °F 46.9 °F 72% 30.09 in 10.0 mi SSE 15.0 mph 21.9 mph N/A   Overcast
2:53 AM 55.0 °F 46.9 °F 74% 30.10 in 10.0 mi SSE 15.0 mph 21.9 mph N/A   Mostly Cloudy
3:53 AM 55.0 °F 46.9 °F 74% 30.09 in 10.0 mi SSE 13.8 mph 25.3 mph N/A   Mostly Cloudy
4:27 AM 55.4 °F 46.4 °F 72% 30.08 in 10.0 mi SSE 12.7 mph 18.4 mph N/A   Overcast
4:53 AM 55.0 °F 46.9 °F 74% 30.11 in 10.0 mi SSE 11.5 mph 19.6 mph N/A   Overcast
5:53 AM 54.0 °F 46.9 °F 77% 30.10 in 10.0 mi SSE 11.5 mph 17.3 mph N/A   Overcast
6:53 AM 55.0 °F 46.9 °F 74% 30.10 in 10.0 mi SSE 9.2 mph - N/A   Overcast
7:53 AM 55.9 °F 46.0 °F 69% 30.12 in 10.0 mi SSE 10.4 mph - N/A   Overcast
8:53 AM 55.0 °F 46.0 °F 72% 30.11 in 10.0 mi SSE 12.7 mph - N/A   Overcast
9:53 AM 55.9 °F 46.9 °F 72% 30.12 in 10.0 mi SSE 8.1 mph 17.3 mph N/A   Overcast
10:53 AM 55.9 °F 48.0 °F 75% 30.12 in 10.0 mi South 9.2 mph - N/A   Overcast
11:53 AM 57.0 °F 50.0 °F 77% 30.11 in 10.0 mi Variable 6.9 mph - N/A   Overcast
12:10 PM 57.2 °F 50.0 °F 77% 30.09 in 10.0 mi South 11.5 mph - N/A   Overcast
12:31 PM 57.2 °F 50.0 °F 77% 30.09 in 10.0 mi South 9.2 mph - N/A   Overcast
12:53 PM 57.9 °F 50.0 °F 75% 30.12 in 10.0 mi South 9.2 mph - N/A   Overcast
1:00 PM 57.2 °F 50.0 °F 77% 30.09 in 10.0 mi SSE 8.1 mph - N/A   Overcast
1:53 PM 59.0 °F 50.0 °F 72% 30.10 in 10.0 mi Variable 5.8 mph - N/A   Overcast
2:53 PM 60.1 °F 50.0 °F 69% 30.10 in 10.0 mi Variable 5.8 mph - N/A   Mostly Cloudy
3:53 PM 63.0 °F 48.0 °F 58% 30.09 in 10.0 mi South 9.2 mph - N/A   Mostly Cloudy
4:53 PM 63.0 °F 46.9 °F 56% 30.07 in 10.0 mi South 8.1 mph - N/A   Partly Cloudy
5:53 PM 62.1 °F 48.9 °F 62% 30.07 in 10.0 mi Variable 5.8 mph - N/A   Clear
6:53 PM 63.0 °F 48.9 °F 60% 30.06 in 10.0 mi South 4.6 mph - N/A   Clear
7:53 PM 62.1 °F 48.9 °F 62% 30.05 in 10.0 mi South 4.6 mph - N/A   Clear
8:53 PM 60.1 °F 48.9 °F 67% 30.04 in 10.0 mi SSE 4.6 mph - N/A   Clear
9:53 PM 57.9 °F 46.9 °F 67% 30.05 in 10.0 mi SSE 4.6 mph - N/A   Partly Cloudy
10:53 PM 57.0 °F 48.0 °F 72% 30.05 in 10.0 mi SSE 4.6 mph - N/A   Clear
11:53 PM 57.2 °F 50.0 °F 77% 30.02 in 10.0 mi South 4.6 mph - N/A   Partly Cloudy